This is the latest recevied weather packets stored in our database for station/object KN6WGU. If no packets are shown the sender has not sent any weather packets the latest 10 day(s).
| Time | Temp. | Humidity | Pressure | Rain* | Wind** | Luminosity | Snow |
|---|---|---|---|---|---|---|---|
| 1788626513 | 23.89° C | 89% | 1007.9 hPa | 0 mm | - | 169 W/m² | - |
| 1788626210 | 23.89° C | 88% | 1007.7 hPa | 0 mm | - | 168 W/m² | - |
| 1788625906 | 23.33° C | 90% | 1007.7 hPa | 0 mm | - | 192 W/m² | - |
| 1788625602 | 23.33° C | 91% | 1007.7 hPa | 0 mm | - | 158 W/m² | - |
| 1788625300 | 23.33° C | 90% | 1007.7 hPa | 0 mm | - | 138 W/m² | - |
| 1788624995 | 23.33° C | 93% | 1008.1 hPa | 0 mm | - | 177 W/m² | - |
| 1788624693 | 23.33° C | 94% | 1007.8 hPa | 0 mm | - | 125 W/m² | - |
| 1788624393 | 23.33° C | 95% | 1007.7 hPa | 0 mm | - | 156 W/m² | - |
| 1788624086 | 22.78° C | 95% | 1007.7 hPa | 0 mm | - | 175 W/m² | - |
| 1788623781 | 22.78° C | 95% | 1007.8 hPa | 0 mm | - | 158 W/m² | - |
| 1788623480 | 23.33° C | 95% | 1007.8 hPa | 0 mm | - | 121 W/m² | - |
| 1788623180 | 23.33° C | 95% | 1007.8 hPa | 4.32 mm | - | 159 W/m² | - |
| 1788622875 | 23.33° C | 94% | 1007.8 hPa | 8.89 mm | - | 113 W/m² | - |
| 1788622571 | 23.33° C | 92% | 1007.6 hPa | 6.1 mm | - | 118 W/m² | - |
| 1788622266 | 23.89° C | 90% | 1007.7 hPa | 0 mm | - | 42 W/m² | - |
| 1788621961 | 23.89° C | 90% | 1007.7 hPa | 0 mm | - | 38 W/m² | - |
| 1788621656 | 24.44° C | 90% | 1007.4 hPa | 0 mm | - | 25 W/m² | - |
| 1788621351 | 24.44° C | 90% | 1007.1 hPa | 0 mm | - | 68 W/m² | - |
| 1788621046 | 24.44° C | 90% | 1007.3 hPa | 0 mm | - | 105 W/m² | - |
| 1788620741 | 24.44° C | 90% | 1007.4 hPa | 0 mm | - | 119 W/m² | - |
| 1788620440 | 24.44° C | 90% | 1007.2 hPa | 0 mm | - | 121 W/m² | - |
| 1788620133 | 23.89° C | 91% | 1007.3 hPa | 0 mm | - | 75 W/m² | - |
| 1788619832 | 23.89° C | 91% | 1007.1 hPa | 0 mm | - | 68 W/m² | - |
| 1788619527 | 23.89° C | 92% | 1007.2 hPa | 0 mm | - | 60 W/m² | - |
| 1788619226 | 23.89° C | 93% | 1007.3 hPa | 0 mm | - | 80 W/m² | - |
* Rain latest hour (hover to see other rain measurements)
** Current wind speed in m/s (hover to see current wind gust speed)